Location: Taaricht
(32.5378°N, 5.4251°W)
Time: 16:48:12
(UTC+00:00)

Cosmos 2074 Rocket - Pass Details

Date: 09 April 2020
Orbit: 968 x 985 km, 82.9° (Epoch: 24 May)

Event Time Altitude Azimuth Distance (km) Brightness Sun altitude
Rises 19:45:37 0° 354° (N) 3,694 7.4 -12.7°
Reaches altitude 10° 19:48:08 10° 355° (N) 2,744 6.7 -13.2°
Maximum altitude 19:54:27 85° 84° (E) 993 4.0 -14.4°
Drops below altitude 10° 20:00:44 10° 174° (S) 2,732 6.1 -15.7°
Sets 20:03:14 0° 175° (S) 3,676 6.8 -16.2°
